Hourly Data Report for October 30, 2014

All times are specified in Local Standard Time (LST). Add 1 hour to adjust for Daylight Saving Time where and when it is observed.

SAINT JOHN A
NEW BRUNSWICK

45°18'58.000" N
65°53'24.000" W
108.80 m
8104901
71609
YSJ

Download Data

Hourly Data (October 2014)
Hourly Data Report for October 30, 2014
Temp Definition
°C
Dew Point Temp Definition
°C
Rel Hum Definition
%
Wind Dir Definition
10's deg

Wind Spd Definition
km/h
Visibility Definition
km
Stn Press Definition
kPa
Hmdx Definition


Wind Chill Definition


Weather Definition


TIME
00:00 Legend Double Dagger 12.2 12.2 100 25 10 1.6 99.34     Drizzle,Fog
01:00 Legend Double Dagger 12.3 12.3 100 27 10 16.1 99.34     Rain
02:00 Legend Double Dagger 10.1 9.2 94 33 18 24.1 99.41     Rain
03:00 Legend Double Dagger 9.5 8.4 93 28 4 24.1 99.44     Rain
04:00 Legend Double Dagger 9.3 8.2 93 28 5 24.1 99.45     LegendNANA
05:00 Legend Double Dagger 9.3 8.9 97 27 8 24.1 99.51     Cloudy
06:00 Legend Double Dagger 7.3 6.9 97 24 8 24.1 99.55     LegendNANA
07:00 Legend Double Dagger 6.9 6.2 95 25 10 24.1 99.58     LegendNANA
08:00 Legend Double Dagger 7.4 6.7 95 25 9 24.1 99.68     Mainly Clear
09:00 Legend Double Dagger 7.5 5.7 88 27 9 24.1 99.69     LegendNANA
10:00 Legend Double Dagger 8.4 4.8 78 29 12 24.1 99.70     LegendNANA
11:00 Legend Double Dagger 10.0 4.6 69 33 17 24.1 99.68     Mostly Cloudy
12:00 Legend Double Dagger 10.9 4.4 64 31 14 24.1 99.67     LegendNANA
13:00 Legend Double Dagger 11.6 LegendMM LegendMM 35 10 24.1 99.63     LegendNANA
14:00 Legend Double Dagger 11.9 3.5 56 30 16 24.1 99.65     Mostly Cloudy
15:00 Legend Double Dagger 10.9 3.0 58 30 8 24.1 99.68     LegendNANA
16:00 Legend Double Dagger 10.8 2.4 56 28 13 24.1 99.73     LegendNANA
17:00 Legend Double Dagger 10.5 2.9 59 30 12 24.1 99.77     Mainly Clear
18:00 Legend Double Dagger 7.6 3.8 77 31 5 24.1 99.84     LegendNANA
19:00 Legend Double Dagger 4.1 3.1 93 16 3 24.1 99.90     LegendNANA
20:00 Legend Double Dagger 3.8 3.2 96 33 3 24.1 99.92     Mostly Cloudy
21:00 Legend Double Dagger 1.7 1.4 98 36 2 24.1 99.97     LegendNANA
22:00 Legend Double Dagger 3.4 3.0 97 36 1 24.1 100.00     LegendNANA
23:00 Legend Double Dagger 4.4 3.7 95 7 5 24.1 100.02     Cloudy

Notes on Data Quality.

Legend

  • E = Estimated
  • M = Missing
  • NA = Not Available
  • ‡ = Partner data that is not subject to review by the National Climate Archives
Date modified: